PRIVATE WETTERSTATION BILLIGHEIM-ALLFELD                       ZURCK
Wetterdaten: Freitag, 25.08.2017
Datum Zeit Temp. A. Temp. A. min Temp. A. max Feuchte A. Luftdruck Regen Wind Richtung Richtung Sonnenschein ET Solar Taupunkt Windchill Windben Empfang
25.08.2017 00:00 16,8 C 16,8 C 16,8 C 76 % 1016,9 hPa 0,0 l/m 0,7 km/h (0 Bft) W-NW 284 0 min 0,000 mm 0 W/m 12,5 C 16,8 C 4,8 km/h (1 Bft) 100 %
25.08.2017 00:10 16,8 C 16,7 C 16,8 C 76 % 1016,9 hPa 0,0 l/m 0,5 km/h (0 Bft) W-NW 284 0 min 3,378 mm 0 W/m 12,5 C 16,8 C 3,2 km/h (1 Bft) 100 %
25.08.2017 00:20 16,8 C 16,8 C 16,8 C 76 % 1016,8 hPa 0,0 l/m 0,9 km/h (0 Bft) W-NW 296 0 min 0,000 mm 0 W/m 12,5 C 16,8 C 4,8 km/h (1 Bft) 100 %
25.08.2017 00:30 16,8 C 16,8 C 16,8 C 77 % 1016,8 hPa 0,0 l/m 0,0 km/h (0 Bft) W-NW 296 0 min 0,000 mm 0 W/m 12,7 C 16,8 C 0,0 km/h (0 Bft) 100 %
25.08.2017 00:40 16,6 C 16,6 C 16,8 C 78 % 1016,9 hPa 0,0 l/m 0,0 km/h (0 Bft) W-NW 296 0 min 0,000 mm 0 W/m 12,7 C 16,6 C 0,0 km/h (0 Bft) 100 %
25.08.2017 00:50 16,4 C 16,4 C 16,6 C 79 % 1016,9 hPa 0,0 l/m 0,0 km/h (0 Bft) W-NW 296 0 min 0,000 mm 0 W/m 12,7 C 16,4 C 0,0 km/h (0 Bft) 100 %
25.08.2017 01:00 16,1 C 16,1 C 16,4 C 80 % 1016,9 hPa 0,0 l/m 0,3 km/h (0 Bft) W-NW 296 0 min 0,026 mm 0 W/m 12,6 C 16,1 C 3,2 km/h (1 Bft) 100 %
25.08.2017 01:10 15,8 C 15,8 C 16,1 C 81 % 1016,9 hPa 0,0 l/m 0,0 km/h (0 Bft) W-NW 296 0 min 0,000 mm 0 W/m 12,5 C 15,8 C 0,0 km/h (0 Bft) 100 %
25.08.2017 01:20 15,6 C 15,6 C 15,8 C 82 % 1016,9 hPa 0,0 l/m 0,0 km/h (0 Bft) W-NW 296 0 min 0,000 mm 0 W/m 12,5 C 15,6 C 0,0 km/h (0 Bft) 100 %
25.08.2017 01:30 15,3 C 15,3 C 15,6 C 82 % 1016,8 hPa 0,0 l/m 0,0 km/h (0 Bft) W-NW 296 0 min 0,000 mm 0 W/m 12,2 C 15,3 C 0,0 km/h (0 Bft) 100 %
25.08.2017 01:40 15,1 C 15,1 C 15,3 C 83 % 1016,9 hPa 0,0 l/m 0,0 km/h (0 Bft) W-NW 296 0 min 0,000 mm 0 W/m 12,2 C 15,1 C 0,0 km/h (0 Bft) 100 %
25.08.2017 01:50 15,1 C 15,1 C 15,1 C 84 % 1016,8 hPa 0,0 l/m 0,0 km/h (0 Bft) W-NW 296 0 min 0,000 mm 0 W/m 12,4 C 15,1 C 0,0 km/h (0 Bft) 100 %
25.08.2017 02:00 14,9 C 14,9 C 15,1 C 85 % 1016,6 hPa 0,0 l/m 0,0 km/h (0 Bft) W-NW 296 0 min 0,025 mm 0 W/m 12,4 C 14,9 C 0,0 km/h (0 Bft) 100 %
25.08.2017 02:10 14,8 C 14,8 C 14,9 C 85 % 1016,7 hPa 0,0 l/m 0,0 km/h (0 Bft) W-NW 296 0 min 0,000 mm 0 W/m 12,3 C 14,8 C 1,6 km/h (1 Bft) 100 %
25.08.2017 02:20 14,9 C 14,8 C 14,9 C 86 % 1016,8 hPa 0,0 l/m 1,9 km/h (1 Bft) NW 304 0 min 0,000 mm 0 W/m 12,6 C 14,9 C 4,8 km/h (1 Bft) 91 %
25.08.2017 02:30 14,9 C 14,9 C 14,9 C 86 % 1016,8 hPa 0,0 l/m 2,8 km/h (1 Bft) NW 306 0 min 0,000 mm 0 W/m 12,6 C 14,9 C 4,8 km/h (1 Bft) 100 %
25.08.2017 02:40 14,9 C 14,9 C 15,0 C 86 % 1016,9 hPa 0,0 l/m 3,5 km/h (1 Bft) NW 319 0 min 0,000 mm 0 W/m 12,6 C 14,9 C 6,4 km/h (2 Bft) 100 %
25.08.2017 02:50 15,0 C 14,9 C 15,0 C 86 % 1016,8 hPa 0,0 l/m 0,9 km/h (0 Bft) NW 322 0 min 0,000 mm 0 W/m 12,7 C 15,0 C 4,8 km/h (1 Bft) 100 %
25.08.2017 03:00 15,0 C 14,9 C 15,0 C 87 % 1016,7 hPa 0,0 l/m 0,6 km/h (0 Bft) NW 322 0 min 0,025 mm 0 W/m 12,9 C 15,0 C 3,2 km/h (1 Bft) 100 %
25.08.2017 03:10 14,9 C 14,9 C 15,0 C 86 % 1016,7 hPa 0,0 l/m 0,0 km/h (0 Bft) NW 322 0 min 0,000 mm 0 W/m 12,6 C 14,9 C 1,6 km/h (1 Bft) 100 %
25.08.2017 03:20 15,0 C 14,9 C 15,0 C 86 % 1016,6 hPa 0,0 l/m 0,0 km/h (0 Bft) NW 322 0 min 0,000 mm 0 W/m 12,7 C 15,0 C 0,0 km/h (0 Bft) 100 %
25.08.2017 03:30 15,0 C 14,9 C 15,0 C 87 % 1016,6 hPa 0,0 l/m 0,0 km/h (0 Bft) NW 322 0 min 0,000 mm 0 W/m 12,9 C 15,0 C 0,0 km/h (0 Bft) 100 %
25.08.2017 03:40 14,9 C 14,9 C 15,0 C 87 % 1016,8 hPa 0,0 l/m 0,0 km/h (0 Bft) NW 322 0 min 0,000 mm 0 W/m 12,8 C 14,9 C 0,0 km/h (0 Bft) 100 %
25.08.2017 03:50 14,9 C 14,9 C 15,0 C 87 % 1016,6 hPa 0,0 l/m 0,0 km/h (0 Bft) NW 322 0 min 0,000 mm 0 W/m 12,8 C 14,9 C 0,0 km/h (0 Bft) 100 %
25.08.2017 04:00 14,9 C 14,9 C 14,9 C 87 % 1016,7 hPa 0,0 l/m 0,0 km/h (0 Bft) NW 322 0 min 0,000 mm 0 W/m 12,8 C 14,9 C 0,0 km/h (0 Bft) 100 %
25.08.2017 04:10 14,8 C 14,8 C 14,9 C 87 % 1016,6 hPa 0,0 l/m 0,0 km/h (0 Bft) NW 322 0 min 0,000 mm 0 W/m 12,7 C 14,8 C 0,0 km/h (0 Bft) 100 %
25.08.2017 04:20 14,7 C 14,7 C 14,8 C 87 % 1016,7 hPa 0,0 l/m 0,0 km/h (0 Bft) NW 322 0 min 0,000 mm 0 W/m 12,6 C 14,7 C 0,0 km/h (0 Bft) 100 %
25.08.2017 04:30 14,5 C 14,5 C 14,7 C 87 % 1016,5 hPa 0,0 l/m 0,0 km/h (0 Bft) NW 322 0 min 0,000 mm 0 W/m 12,4 C 14,5 C 0,0 km/h (0 Bft) 100 %
25.08.2017 04:40 14,3 C 14,3 C 14,5 C 88 % 1016,5 hPa 0,0 l/m 0,0 km/h (0 Bft) NW 322 0 min 0,000 mm 0 W/m 12,3 C 14,3 C 0,0 km/h (0 Bft) 100 %
25.08.2017 04:50 14,2 C 14,2 C 14,3 C 88 % 1016,4 hPa 0,0 l/m 0,0 km/h (0 Bft) NW 322 0 min 0,000 mm 0 W/m 12,2 C 14,2 C 0,0 km/h (0 Bft) 99 %
25.08.2017 05:00 14,1 C 14,1 C 14,2 C 88 % 1016,2 hPa 0,0 l/m 0,0 km/h (0 Bft) NW 322 0 min 0,000 mm 0 W/m 12,1 C 14,1 C 1,6 km/h (1 Bft) 100 %
25.08.2017 05:10 14,0 C 14,0 C 14,1 C 88 % 1016,3 hPa 0,0 l/m 1,6 km/h (1 Bft) NW 322 0 min 0,000 mm 0 W/m 12,0 C 14,0 C 4,8 km/h (1 Bft) 100 %
25.08.2017 05:20 13,9 C 13,9 C 14,0 C 88 % 1016,5 hPa 0,0 l/m 0,6 km/h (0 Bft) NW 322 0 min 0,000 mm 0 W/m 11,9 C 13,9 C 4,8 km/h (1 Bft) 100 %
25.08.2017 05:30 13,8 C 13,8 C 13,9 C 89 % 1016,5 hPa 0,0 l/m 0,0 km/h (0 Bft) NW 322 0 min 0,000 mm 0 W/m 12,0 C 13,8 C 1,6 km/h (1 Bft) 100 %
25.08.2017 05:40 13,7 C 13,7 C 13,8 C 88 % 1016,5 hPa 0,0 l/m 0,8 km/h (0 Bft) NW 322 0 min 0,000 mm 0 W/m 11,7 C 13,7 C 4,8 km/h (1 Bft) 100 %
25.08.2017 05:50 13,6 C 13,6 C 13,7 C 88 % 1016,4 hPa 0,0 l/m 0,0 km/h (0 Bft) NW 322 0 min 0,000 mm 0 W/m 11,6 C 13,6 C 0,0 km/h (0 Bft) 100 %
25.08.2017 06:00 13,6 C 13,6 C 13,6 C 89 % 1016,5 hPa 0,0 l/m 0,0 km/h (0 Bft) NW 322 0 min 0,000 mm 0 W/m 11,8 C 13,6 C 0,0 km/h (0 Bft) 100 %
25.08.2017 06:10 13,6 C 13,6 C 13,6 C 88 % 1016,4 hPa 0,0 l/m 0,0 km/h (0 Bft) NW 322 0 min 0,000 mm 0 W/m 11,6 C 13,6 C 0,0 km/h (0 Bft) 100 %
25.08.2017 06:20 13,5 C 13,5 C 13,6 C 88 % 1016,5 hPa 0,0 l/m 0,0 km/h (0 Bft) NW 322 0 min 0,000 mm 0 W/m 11,6 C 13,5 C 0,0 km/h (0 Bft) 100 %
25.08.2017 06:30 13,5 C 13,5 C 13,5 C 88 % 1016,5 hPa 0,0 l/m 1,2 km/h (1 Bft) NW 322 0 min 0,000 mm 0 W/m 11,6 C 13,5 C 4,8 km/h (1 Bft) 100 %
25.08.2017 06:40 13,5 C 13,5 C 13,5 C 88 % 1016,6 hPa 0,0 l/m 2,4 km/h (1 Bft) NW 322 0 min 0,000 mm 7 W/m 11,6 C 13,5 C 4,8 km/h (1 Bft) 100 %
25.08.2017 06:50 13,6 C 13,5 C 13,6 C 88 % 1016,7 hPa 0,0 l/m 0,1 km/h (0 Bft) NW 322 0 min 0,000 mm 14 W/m 11,6 C 13,6 C 1,6 km/h (1 Bft) 100 %
25.08.2017 07:00 13,6 C 13,5 C 13,6 C 89 % 1016,6 hPa 0,0 l/m 0,0 km/h (0 Bft) NW 322 0 min 0,000 mm 21 W/m 11,8 C 13,6 C 0,0 km/h (0 Bft) 100 %
25.08.2017 07:10 13,6 C 13,6 C 13,6 C 89 % 1016,6 hPa 0,0 l/m 0,0 km/h (0 Bft) NW 322 0 min 0,000 mm 28 W/m 11,8 C 13,6 C 0,0 km/h (0 Bft) 100 %
25.08.2017 07:20 13,6 C 13,6 C 13,6 C 89 % 1016,6 hPa 0,0 l/m 0,0 km/h (0 Bft) NW 322 0 min 0,000 mm 28 W/m 11,8 C 13,6 C 0,0 km/h (0 Bft) 100 %
25.08.2017 07:30 13,7 C 13,6 C 13,7 C 88 % 1016,7 hPa 0,0 l/m 0,0 km/h (0 Bft) NW 322 0 min 0,000 mm 35 W/m 11,7 C 13,7 C 0,0 km/h (0 Bft) 100 %
25.08.2017 07:40 13,7 C 13,7 C 13,7 C 88 % 1016,8 hPa 0,0 l/m 0,0 km/h (0 Bft) NW 322 0 min 0,000 mm 54 W/m 11,7 C 13,7 C 1,6 km/h (1 Bft) 100 %
25.08.2017 07:50 13,9 C 13,7 C 13,9 C 89 % 1016,8 hPa 0,0 l/m 0,8 km/h (0 Bft) NW 322 0 min 0,000 mm 81 W/m 12,1 C 13,9 C 4,8 km/h (1 Bft) 100 %
25.08.2017 08:00 14,2 C 13,9 C 14,2 C 88 % 1016,7 hPa 0,0 l/m 0,0 km/h (0 Bft) NW 322 0 min 0,000 mm 67 W/m 12,2 C 14,2 C 0,0 km/h (0 Bft) 99 %
25.08.2017 08:10 14,6 C 14,2 C 14,6 C 88 % 1016,9 hPa 0,0 l/m 0,0 km/h (0 Bft) NW 322 0 min 0,025 mm 69 W/m 12,6 C 14,6 C 1,6 km/h (1 Bft) 99 %
25.08.2017 08:20 14,7 C 14,6 C 14,7 C 89 % 1017,2 hPa 0,0 l/m 1,5 km/h (1 Bft) NW 322 0 min 0,001 mm 111 W/m 12,9 C 14,7 C 6,4 km/h (2 Bft) 100 %
25.08.2017 08:30 15,1 C 14,7 C 15,1 C 89 % 1017,1 hPa 0,0 l/m 0,6 km/h (0 Bft) NW 322 0 min 0,000 mm 139 W/m 13,3 C 15,1 C 3,2 km/h (1 Bft) 99 %
25.08.2017 08:40 15,3 C 15,1 C 15,3 C 89 % 1017,1 hPa 0,0 l/m 0,0 km/h (0 Bft) NW 322 0 min 0,000 mm 142 W/m 13,5 C 15,3 C 1,6 km/h (1 Bft) 100 %
25.08.2017 08:50 15,8 C 15,3 C 15,8 C 89 % 1017,2 hPa 0,0 l/m 0,0 km/h (0 Bft) NW 322 10 min 0,000 mm 160 W/m 14,0 C 15,8 C 0,0 km/h (0 Bft) 99 %
25.08.2017 09:00 16,6 C 15,8 C 16,6 C 88 % 1017,2 hPa 0,0 l/m 0,0 km/h (0 Bft) NW 322 10 min 0,076 mm 265 W/m 14,6 C 16,6 C 0,0 km/h (0 Bft) 99 %
25.08.2017 09:10 17,5 C 16,6 C 17,5 C 88 % 1017,2 hPa 0,0 l/m 0,0 km/h (0 Bft) NW 322 10 min 0,000 mm 200 W/m 15,5 C 17,5 C 0,0 km/h (0 Bft) 99 %
25.08.2017 09:20 18,4 C 17,5 C 18,4 C 86 % 1017,1 hPa 0,0 l/m 0,0 km/h (0 Bft) NW 317 10 min 0,000 mm 272 W/m 16,0 C 18,4 C 1,6 km/h (1 Bft) 99 %
25.08.2017 09:30 19,4 C 18,4 C 19,4 C 81 % 1017,1 hPa 0,0 l/m 0,0 km/h (0 Bft) W-SW 256 10 min 0,000 mm 431 W/m 16,1 C 19,4 C 1,6 km/h (1 Bft) 99 %
25.08.2017 09:40 20,4 C 19,4 C 20,4 C 80 % 1017,0 hPa 0,0 l/m 0,0 km/h (0 Bft) S-SW 211 10 min 0,000 mm 476 W/m 16,8 C 20,4 C 1,6 km/h (1 Bft) 100 %
25.08.2017 09:50 20,8 C 20,4 C 20,8 C 79 % 1017,0 hPa 0,0 l/m 3,4 km/h (1 Bft) S-SW 202 10 min 0,000 mm 527 W/m 17,0 C 20,8 C 9,7 km/h (2 Bft) 99 %
25.08.2017 10:00 21,2 C 20,8 C 21,2 C 75 % 1017,1 hPa 0,0 l/m 7,2 km/h (2 Bft) S-SW 195 10 min 0,229 mm 410 W/m 16,6 C 20,9 C 14,5 km/h (3 Bft) 100 %
25.08.2017 10:10 21,5 C 21,2 C 21,5 C 74 % 1017,2 hPa 0,0 l/m 3,8 km/h (1 Bft) S 182 10 min 0,000 mm 568 W/m 16,7 C 21,5 C 11,3 km/h (2 Bft) 98 %
25.08.2017 10:20 21,8 C 21,5 C 21,9 C 72 % 1017,2 hPa 0,0 l/m 2,2 km/h (1 Bft) S-SO 159 10 min 0,000 mm 554 W/m 16,5 C 21,8 C 9,7 km/h (2 Bft) 99 %
25.08.2017 10:30 21,8 C 21,6 C 21,8 C 77 % 1017,1 hPa 0,0 l/m 1,5 km/h (1 Bft) S-SW 198 10 min 0,000 mm 631 W/m 17,6 C 21,8 C 8,0 km/h (2 Bft) 99 %
25.08.2017 10:40 22,5 C 21,8 C 22,5 C 74 % 1017,1 hPa 0,0 l/m 1,6 km/h (1 Bft) S 182 10 min 0,000 mm 617 W/m 17,6 C 22,5 C 9,7 km/h (2 Bft) 99 %
25.08.2017 10:50 22,8 C 22,5 C 22,8 C 73 % 1017,0 hPa 0,0 l/m 1,4 km/h (1 Bft) S-SW 200 10 min 0,000 mm 589 W/m 17,7 C 22,8 C 8,0 km/h (2 Bft) 99 %
25.08.2017 11:00 23,2 C 22,8 C 23,2 C 70 % 1016,9 hPa 0,0 l/m 2,5 km/h (1 Bft) S-SO 157 10 min 0,330 mm 705 W/m 17,4 C 23,2 C 9,7 km/h (2 Bft) 99 %
25.08.2017 11:10 23,6 C 23,2 C 23,6 C 71 % 1016,8 hPa 0,0 l/m 2,9 km/h (1 Bft) S 173 10 min 0,000 mm 448 W/m 18,0 C 23,6 C 8,0 km/h (2 Bft) 99 %
25.08.2017 11:20 23,3 C 23,3 C 23,6 C 68 % 1016,9 hPa 0,0 l/m 3,6 km/h (1 Bft) SO 134 10 min 0,000 mm 698 W/m 17,1 C 23,3 C 11,3 km/h (2 Bft) 100 %
25.08.2017 11:30 23,7 C 23,3 C 23,7 C 68 % 1016,9 hPa 0,0 l/m 2,2 km/h (1 Bft) S 180 10 min 0,000 mm 668 W/m 17,4 C 23,7 C 16,1 km/h (3 Bft) 99 %
25.08.2017 11:40 24,1 C 23,7 C 24,1 C 72 % 1017,0 hPa 0,0 l/m 1,1 km/h (1 Bft) W-NW 294 10 min 0,000 mm 679 W/m 18,7 C 24,1 C 9,7 km/h (2 Bft) 100 %
25.08.2017 11:50 24,7 C 24,1 C 24,7 C 68 % 1017,0 hPa 0,0 l/m 2,2 km/h (1 Bft) W 265 10 min 0,000 mm 693 W/m 18,4 C 24,7 C 9,7 km/h (2 Bft) 100 %
25.08.2017 12:00 25,3 C 24,7 C 25,3 C 64 % 1016,8 hPa 0,0 l/m 1,1 km/h (1 Bft) S-SW 211 10 min 0,432 mm 705 W/m 18,0 C 25,3 C 8,0 km/h (2 Bft) 99 %
25.08.2017 12:10 25,2 C 25,2 C 25,4 C 65 % 1016,7 hPa 0,0 l/m 2,3 km/h (1 Bft) SW 225 10 min 0,000 mm 714 W/m 18,1 C 25,2 C 11,3 km/h (2 Bft) 99 %
25.08.2017 12:20 25,6 C 25,2 C 25,6 C 65 % 1016,7 hPa 0,0 l/m 0,3 km/h (0 Bft) W-NW 296 10 min 0,000 mm 722 W/m 18,5 C 25,6 C 8,0 km/h (2 Bft) 99 %
25.08.2017 12:30 26,0 C 25,6 C 26,0 C 62 % 1016,6 hPa 0,0 l/m 1,9 km/h (1 Bft) W 262 10 min 0,000 mm 747 W/m 18,1 C 26,0 C 9,7 km/h (2 Bft) 100 %
25.08.2017 12:40 26,4 C 26,0 C 26,4 C 64 % 1016,6 hPa 0,0 l/m 5,2 km/h (1 Bft) W 269 10 min 0,000 mm 742 W/m 19,0 C 26,4 C 9,7 km/h (2 Bft) 100 %
25.08.2017 12:50 26,7 C 26,4 C 26,7 C 62 % 1016,5 hPa 0,0 l/m 6,7 km/h (2 Bft) S 191 10 min 0,000 mm 751 W/m 18,8 C 26,6 C 14,5 km/h (3 Bft) 100 %
25.08.2017 13:00 26,7 C 26,7 C 26,8 C 63 % 1016,4 hPa 0,0 l/m 3,9 km/h (1 Bft) S-SW 211 10 min 0,482 mm 847 W/m 19,1 C 26,7 C 16,1 km/h (3 Bft) 100 %
25.08.2017 13:10 26,9 C 26,7 C 26,9 C 61 % 1016,5 hPa 0,0 l/m 2,8 km/h (1 Bft) S-SW 199 10 min 0,000 mm 837 W/m 18,7 C 26,9 C 16,1 km/h (3 Bft) 100 %
25.08.2017 13:20 27,1 C 26,9 C 27,1 C 61 % 1016,3 hPa 0,0 l/m 4,2 km/h (1 Bft) S-SW 209 10 min 0,000 mm 761 W/m 18,9 C 27,1 C 9,7 km/h (2 Bft) 100 %
25.08.2017 13:30 27,4 C 27,1 C 27,4 C 61 % 1016,1 hPa 0,0 l/m 5,1 km/h (1 Bft) SW 225 10 min 0,000 mm 722 W/m 19,2 C 27,4 C 11,3 km/h (2 Bft) 100 %
25.08.2017 13:40 27,5 C 27,4 C 27,5 C 62 % 1016,1 hPa 0,0 l/m 3,2 km/h (1 Bft) W-SW 247 10 min 0,000 mm 798 W/m 19,6 C 27,5 C 9,7 km/h (2 Bft) 100 %
25.08.2017 13:50 27,7 C 27,4 C 27,7 C 62 % 1016,1 hPa 0,0 l/m 3,6 km/h (1 Bft) SW 232 10 min 0,000 mm 784 W/m 19,7 C 27,7 C 9,7 km/h (2 Bft) 100 %
25.08.2017 14:00 27,8 C 27,7 C 27,8 C 61 % 1016,0 hPa 0,0 l/m 1,5 km/h (1 Bft) S 182 10 min 0,508 mm 754 W/m 19,6 C 27,8 C 11,3 km/h (2 Bft) 100 %
25.08.2017 14:10 27,7 C 27,7 C 27,9 C 61 % 1016,1 hPa 0,0 l/m 4,4 km/h (1 Bft) SW 232 10 min 0,000 mm 742 W/m 19,5 C 27,7 C 11,3 km/h (2 Bft) 100 %
25.08.2017 14:20 27,7 C 27,7 C 27,8 C 57 % 1015,9 hPa 0,0 l/m 2,6 km/h (1 Bft) SO 139 10 min 0,000 mm 721 W/m 18,4 C 27,7 C 14,5 km/h (3 Bft) 100 %
25.08.2017 14:30 27,7 C 27,6 C 27,7 C 59 % 1015,8 hPa 0,0 l/m 1,1 km/h (1 Bft) W 271 10 min 0,000 mm 715 W/m 18,9 C 27,7 C 8,0 km/h (2 Bft) 100 %
25.08.2017 14:40 28,1 C 27,7 C 28,1 C 59 % 1015,8 hPa 0,0 l/m 4,7 km/h (1 Bft) W 272 10 min 0,000 mm 701 W/m 19,3 C 28,1 C 11,3 km/h (2 Bft) 100 %
25.08.2017 14:50 28,4 C 28,1 C 28,4 C 59 % 1015,7 hPa 0,0 l/m 5,1 km/h (1 Bft) NW 319 10 min 0,000 mm 701 W/m 19,6 C 28,4 C 11,3 km/h (2 Bft) 100 %
25.08.2017 15:00 28,7 C 28,4 C 28,7 C 56 % 1015,6 hPa 0,0 l/m 2,8 km/h (1 Bft) W-SW 242 10 min 0,483 mm 673 W/m 19,0 C 28,7 C 9,7 km/h (2 Bft) 100 %
25.08.2017 15:10 28,6 C 28,6 C 28,7 C 57 % 1015,5 hPa 0,0 l/m 4,2 km/h (1 Bft) S-SO 148 10 min 0,000 mm 666 W/m 19,2 C 28,6 C 11,3 km/h (2 Bft) 100 %
25.08.2017 15:20 28,0 C 28,0 C 28,6 C 60 % 1015,4 hPa 0,0 l/m 2,9 km/h (1 Bft) S-SW 207 10 min 0,000 mm 643 W/m 19,5 C 28,0 C 16,1 km/h (3 Bft) 100 %
25.08.2017 15:30 28,0 C 27,9 C 28,0 C 60 % 1015,3 hPa 0,0 l/m 2,5 km/h (1 Bft) SW 234 10 min 0,000 mm 631 W/m 19,5 C 28,0 C 11,3 km/h (2 Bft) 100 %
25.08.2017 15:40 28,2 C 28,0 C 28,2 C 59 % 1015,4 hPa 0,0 l/m 2,2 km/h (1 Bft) SW 226 10 min 0,000 mm 606 W/m 19,4 C 28,2 C 9,7 km/h (2 Bft) 100 %
25.08.2017 15:50 28,3 C 28,2 C 28,3 C 59 % 1015,3 hPa 0,0 l/m 0,0 km/h (0 Bft) W-SW 242 10 min 0,000 mm 594 W/m 19,5 C 28,3 C 0,0 km/h (0 Bft) 100 %
25.08.2017 16:00 28,3 C 28,3 C 28,4 C 59 % 1015,1 hPa 0,0 l/m 2,0 km/h (1 Bft) SO 144 10 min 0,000 mm 570 W/m 19,5 C 28,3 C 11,3 km/h (2 Bft) 100 %
25.08.2017 16:10 28,2 C 28,2 C 28,3 C 59 % 1015,1 hPa 0,0 l/m 2,7 km/h (1 Bft) S-SW 198 10 min 0,432 mm 548 W/m 19,4 C 28,2 C 14,5 km/h (3 Bft) 100 %
25.08.2017 16:20 28,2 C 28,2 C 28,2 C 60 % 1015,1 hPa 0,0 l/m 4,0 km/h (1 Bft) S-SW 200 10 min 0,000 mm 524 W/m 19,7 C 28,2 C 14,5 km/h (3 Bft) 99 %
25.08.2017 16:30 28,3 C 28,2 C 28,3 C 59 % 1015,0 hPa 0,0 l/m 0,1 km/h (0 Bft) NW 317 10 min 0,000 mm 478 W/m 19,5 C 28,3 C 4,8 km/h (1 Bft) 100 %
25.08.2017 16:40 28,6 C 28,3 C 28,6 C 58 % 1014,8 hPa 0,0 l/m 0,5 km/h (0 Bft) NW 306 0 min 0,000 mm 121 W/m 19,5 C 28,6 C 8,0 km/h (2 Bft) 100 %
25.08.2017 16:50 28,7 C 28,6 C 28,7 C 59 % 1014,7 hPa 0,0 l/m 0,0 km/h (0 Bft) NW 306 0 min 0,000 mm 116 W/m 19,9 C 28,7 C 0,0 km/h (0 Bft) 100 %
25.08.2017 17:00 28,7 C 28,7 C 28,7 C 57 % 1014,7 hPa 0,0 l/m 0,0 km/h (0 Bft) SW 231 0 min 0,228 mm 105 W/m 19,3 C 28,7 C 1,6 km/h (1 Bft) 100 %
25.08.2017 17:10 28,6 C 28,6 C 28,7 C 57 % 1014,5 hPa 0,0 l/m 0,6 km/h (0 Bft) S 188 0 min 0,000 mm 102 W/m 19,2 C 28,6 C 6,4 km/h (2 Bft) 100 %
25.08.2017 17:20 28,4 C 28,4 C 28,6 C 59 % 1014,5 hPa 0,0 l/m 1,3 km/h (1 Bft) S-SW 206 0 min 0,000 mm 97 W/m 19,6 C 28,4 C 12,9 km/h (3 Bft) 100 %
25.08.2017 17:30 28,0 C 28,0 C 28,4 C 60 % 1014,3 hPa 0,0 l/m 0,1 km/h (0 Bft) S-SO 157 0 min 0,000 mm 91 W/m 19,5 C 28,0 C 1,6 km/h (1 Bft) 100 %
25.08.2017 17:40 27,8 C 27,8 C 28,0 C 59 % 1014,2 hPa 0,0 l/m 0,0 km/h (0 Bft) S-SO 158 0 min 0,000 mm 81 W/m 19,0 C 27,8 C 1,6 km/h (1 Bft) 100 %
25.08.2017 17:50 27,7 C 27,7 C 27,8 C 59 % 1014,2 hPa 0,0 l/m 0,1 km/h (0 Bft) SO 131 0 min 0,000 mm 125 W/m 18,9 C 27,7 C 1,6 km/h (1 Bft) 100 %
25.08.2017 18:00 27,6 C 27,6 C 27,7 C 62 % 1014,2 hPa 0,0 l/m 0,0 km/h (0 Bft) SO 131 10 min 0,076 mm 160 W/m 19,6 C 27,6 C 1,6 km/h (1 Bft) 100 %
25.08.2017 18:10 27,6 C 27,6 C 27,6 C 64 % 1014,1 hPa 0,0 l/m 0,0 km/h (0 Bft) O-SO 121 0 min 0,000 mm 113 W/m 20,2 C 27,6 C 0,0 km/h (0 Bft) 100 %
25.08.2017 18:20 27,4 C 27,4 C 27,6 C 61 % 1014,0 hPa 0,0 l/m 0,0 km/h (0 Bft) O-SO 121 10 min 0,000 mm 158 W/m 19,2 C 27,4 C 1,6 km/h (1 Bft) 100 %
25.08.2017 18:30 27,6 C 27,4 C 27,6 C 59 % 1013,7 hPa 0,0 l/m 0,2 km/h (0 Bft) O-SO 117 0 min 0,000 mm 123 W/m 18,8 C 27,6 C 4,8 km/h (1 Bft) 100 %
25.08.2017 18:40 27,6 C 27,5 C 27,6 C 60 % 1013,8 hPa 0,0 l/m 0,5 km/h (0 Bft) O-SO 117 0 min 0,000 mm 65 W/m 19,1 C 27,6 C 9,7 km/h (2 Bft) 100 %
25.08.2017 18:50 27,4 C 27,4 C 27,6 C 61 % 1013,7 hPa 0,0 l/m 0,0 km/h (0 Bft) O-SO 110 0 min 0,000 mm 70 W/m 19,2 C 27,4 C 1,6 km/h (1 Bft) 100 %
25.08.2017 19:00 27,2 C 27,2 C 27,4 C 63 % 1014,1 hPa 0,0 l/m 0,0 km/h (0 Bft) O-SO 110 0 min 0,077 mm 74 W/m 19,5 C 27,2 C 0,0 km/h (0 Bft) 100 %
25.08.2017 19:10 26,9 C 26,9 C 27,2 C 64 % 1014,1 hPa 0,0 l/m 0,0 km/h (0 Bft) O-SO 110 0 min 0,000 mm 30 W/m 19,5 C 26,9 C 0,0 km/h (0 Bft) 100 %
25.08.2017 19:20 26,4 C 26,4 C 26,9 C 65 % 1014,1 hPa 0,0 l/m 0,0 km/h (0 Bft) O-SO 110 0 min 0,000 mm 9 W/m 19,3 C 26,4 C 0,0 km/h (0 Bft) 100 %
25.08.2017 19:30 26,0 C 26,0 C 26,4 C 67 % 1014,0 hPa 0,0 l/m 0,0 km/h (0 Bft) O-SO 110 0 min 0,000 mm 9 W/m 19,4 C 26,0 C 0,0 km/h (0 Bft) 100 %
25.08.2017 19:40 25,7 C 25,7 C 26,0 C 68 % 1013,9 hPa 0,0 l/m 0,0 km/h (0 Bft) O-SO 110 0 min 0,000 mm 9 W/m 19,3 C 25,7 C 0,0 km/h (0 Bft) 100 %
25.08.2017 19:50 25,4 C 25,4 C 25,7 C 69 % 1014,0 hPa 0,0 l/m 0,0 km/h (0 Bft) O-SO 110 0 min 0,000 mm 9 W/m 19,3 C 25,4 C 0,0 km/h (0 Bft) 100 %
25.08.2017 20:00 25,1 C 25,1 C 25,4 C 69 % 1014,0 hPa 0,0 l/m 0,0 km/h (0 Bft) O-SO 110 0 min 0,025 mm 12 W/m 19,0 C 25,1 C 0,0 km/h (0 Bft) 100 %
25.08.2017 20:10 24,7 C 24,7 C 25,1 C 71 % 1014,1 hPa 0,0 l/m 0,0 km/h (0 Bft) O-SO 107 0 min 0,000 mm 5 W/m 19,1 C 24,7 C 1,6 km/h (1 Bft) 100 %
25.08.2017 20:20 24,4 C 24,4 C 24,7 C 71 % 1014,3 hPa 0,0 l/m 0,0 km/h (0 Bft) O-SO 107 0 min 0,000 mm 0 W/m 18,8 C 24,4 C 0,0 km/h (0 Bft) 100 %
25.08.2017 20:30 24,1 C 24,1 C 24,4 C 73 % 1014,2 hPa 0,0 l/m 0,0 km/h (0 Bft) O-SO 107 0 min 0,000 mm 0 W/m 18,9 C 24,1 C 1,6 km/h (1 Bft) 100 %
25.08.2017 20:40 23,7 C 23,7 C 24,1 C 74 % 1014,5 hPa 0,0 l/m 2,3 km/h (1 Bft) NW 313 0 min 0,000 mm 0 W/m 18,8 C 23,7 C 11,3 km/h (2 Bft) 100 %
25.08.2017 20:50 23,3 C 23,3 C 23,7 C 76 % 1014,5 hPa 0,0 l/m 2,4 km/h (1 Bft) N-NW 328 0 min 0,000 mm 0 W/m 18,8 C 23,3 C 9,7 km/h (2 Bft) 100 %
25.08.2017 21:00 22,9 C 22,9 C 23,3 C 77 % 1014,5 hPa 0,0 l/m 1,6 km/h (1 Bft) N-NW 348 0 min 0,000 mm 0 W/m 18,6 C 22,9 C 9,7 km/h (2 Bft) 100 %
25.08.2017 21:10 22,6 C 22,6 C 22,9 C 79 % 1014,6 hPa 0,0 l/m 0,5 km/h (0 Bft) N 355 0 min 0,000 mm 0 W/m 18,8 C 22,6 C 6,4 km/h (2 Bft) 100 %
25.08.2017 21:20 22,3 C 22,3 C 22,6 C 79 % 1014,6 hPa 0,0 l/m 0,1 km/h (0 Bft) N 355 0 min 0,000 mm 0 W/m 18,5 C 22,3 C 3,2 km/h (1 Bft) 100 %
25.08.2017 21:30 21,9 C 21,9 C 22,3 C 80 % 1014,4 hPa 0,0 l/m 0,0 km/h (0 Bft) N 355 0 min 0,000 mm 0 W/m 18,3 C 21,9 C 0,0 km/h (0 Bft) 100 %
25.08.2017 21:40 21,6 C 21,6 C 21,9 C 80 % 1014,4 hPa 0,0 l/m 0,0 km/h (0 Bft) N-NW 338 0 min 0,000 mm 0 W/m 18,0 C 21,6 C 0,0 km/h (0 Bft) 100 %
25.08.2017 21:50 21,3 C 21,3 C 21,6 C 81 % 1014,5 hPa 0,0 l/m 0,0 km/h (0 Bft) N-NW 338 0 min 0,000 mm 0 W/m 17,9 C 21,3 C 0,0 km/h (0 Bft) 100 %
25.08.2017 22:00 21,0 C 21,0 C 21,3 C 82 % 1014,6 hPa 0,0 l/m 0,0 km/h (0 Bft) N-NW 338 0 min 0,025 mm 0 W/m 17,8 C 21,0 C 0,0 km/h (0 Bft) 100 %
25.08.2017 22:10 20,7 C 20,7 C 21,0 C 82 % 1014,5 hPa 0,0 l/m 0,0 km/h (0 Bft) N-NW 338 0 min 0,000 mm 0 W/m 17,5 C 20,7 C 0,0 km/h (0 Bft) 100 %
25.08.2017 22:20 20,4 C 20,4 C 20,7 C 83 % 1014,5 hPa 0,0 l/m 0,0 km/h (0 Bft) N-NW 338 0 min 0,000 mm 0 W/m 17,4 C 20,4 C 0,0 km/h (0 Bft) 100 %
25.08.2017 22:30 20,2 C 20,2 C 20,4 C 84 % 1014,7 hPa 0,0 l/m 0,2 km/h (0 Bft) N-NW 336 0 min 0,000 mm 0 W/m 17,4 C 20,2 C 3,2 km/h (1 Bft) 100 %
25.08.2017 22:40 20,1 C 20,1 C 20,2 C 85 % 1014,7 hPa 0,0 l/m 0,1 km/h (0 Bft) N-NW 336 0 min 0,000 mm 0 W/m 17,5 C 20,1 C 4,8 km/h (1 Bft) 100 %
25.08.2017 22:50 19,9 C 19,9 C 20,1 C 84 % 1014,6 hPa 0,0 l/m 1,1 km/h (1 Bft) N-NO 17 0 min 0,000 mm 0 W/m 17,1 C 19,9 C 9,7 km/h (2 Bft) 100 %
25.08.2017 23:00 19,7 C 19,7 C 19,9 C 84 % 1014,5 hPa 0,0 l/m 2,2 km/h (1 Bft) N-NO 24 0 min 0,026 mm 0 W/m 16,9 C 19,7 C 11,3 km/h (2 Bft) 100 %
25.08.2017 23:10 19,7 C 19,7 C 19,8 C 84 % 1014,6 hPa 0,0 l/m 2,3 km/h (1 Bft) N-NO 31 0 min 0,000 mm 0 W/m 16,9 C 19,7 C 8,0 km/h (2 Bft) 100 %
25.08.2017 23:20 19,7 C 19,7 C 19,8 C 84 % 1014,8 hPa 0,0 l/m 1,6 km/h (1 Bft) N-NW 335 0 min 0,000 mm 0 W/m 16,9 C 19,7 C 8,0 km/h (2 Bft) 100 %
25.08.2017 23:30 19,6 C 19,6 C 19,7 C 84 % 1015,0 hPa 0,0 l/m 0,6 km/h (0 Bft) O 95 0 min 0,000 mm 0 W/m 16,8 C 19,6 C 6,4 km/h (2 Bft) 100 %
25.08.2017 23:40 19,4 C 19,4 C 19,6 C 84 % 1015,1 hPa 0,0 l/m 0,6 km/h (0 Bft) O-NO 63 0 min 0,000 mm 0 W/m 16,6 C 19,4 C 4,8 km/h (1 Bft) 99 %
25.08.2017 23:50 19,2 C 19,2 C 19,4 C 85 % 1015,0 hPa 0,0 l/m 0,1 km/h (0 Bft) O-NO 63 0 min 0,000 mm 0 W/m 16,6 C 19,2 C 3,2 km/h (1 Bft) 100 %
_ Min-Zeit 06:20 06:20 06:30 15:00 18:30 - 00:30 - - - - - 06:20 06:20 00:30 02:20
Minimum _ 13,5 C 13,5 C 13,5 C 56 % 1013,7 hPa - 0,0 km/h (0 Bft) - - - - - 11,6 C 13,5 C 0,0 km/h (0 Bft) 91 %
_ Max-Zeit 15:00 17:00 15:00 05:30 08:20 00:00 10:00 - - 08:50 00:10 13:00 18:10 15:00 11:30 00:00
Maximum _ 28,7 C 28,7 C 28,7 C 89 % 1017,2 hPa 0,0 l/m 7,2 km/h
S-SW (2 Bft)
- - 10 min 3,378 mm 847 W/m 20,2 C 28,7 C 16,1 km/h
SW (3 Bft)
100 %
Durchschnitt _ 21,0 C 20,8 C 21,1 C 75 % 1015,9 hPa #0,0 l/m 1,1 km/h (1 Bft) S-SW - #8:10 h #6,909 mm 384 W/m 16,1 C 21,0 C 4,8 km/h (1 Bft) 100 %
PRIVATE WETTERSTATION BILLIGHEIM-ALLFELD - www.neckar-odenwald-wetter.de - Holger Sonntag